Weather History for KEUG - March, 2014

Change the Weather History Date:

Thursday, March 20, 2014

  Actual Average Record
Temperature  
Mean Temperature 42 °F 47 °F  
Max Temperature 54 °F 57 °F 76 °F (1914)
Min Temperature 30 °F 38 °F 25 °F (1955)
Degree Days  
Heating Degree Days 23 18  
Month to date heating degree days 297 379  
Since 1 July heating degree days 3864 3706  
Cooling Degree Days 0 0  
Month to date cooling degree days 0 0  
Year to date cooling degree days 0 0  
Moisture  
Dew Point 33 °F    
Average Humidity 71    
Maximum Humidity 100    
Minimum Humidity 41    
Precipitation  
Precipitation 0.00 in 0.16 in 0.90 in (1945)
Month to date precipitation 3.34 3.34  
Year to date precipitation 13.89 15.64  
Sea Level Pressure  
Sea Level Pressure 30.34 in    
Wind  
Wind Speed 7 mph (North)    
Max Wind Speed 17 mph    
Max Gust Speed 20 mph    
Visibility 7 miles    
Events Fog    
T = Trace of Precipitation, MM = Missing Value Source: NWS Daily Summary

Daily Weather History Graph

Daily Weather History Graph

Search for Another Location

Airport or City:

Trip Planner

Search our weather history database for the weather conditions in past years. The results will help you decide how hot, cold, wet, or windy it might be!

Date:

Astronomy

Mar. 20, 2014 Rise Set
Actual Time 7:15 AM PDT 7:25 PM PDT
Civil Twilight 6:46 AM PDT 7:54 PM PDT
Nautical Twilight 6:13 AM PDT 8:28 PM PDT
Astronomical Twilight 5:38 AM PDT 9:02 PM PDT
Moon No Moon Rise 9:17 AM PDT (3/20)
Length of Visible Light 13h 07m
Length of Day
12h 09m
Waning Gibbous, 83% of the Moon is Illuminated
Mar 20
Waning Gibbous
Mar 23
Last Quarter
Mar 30
New
Apr 7
First Quarter
Apr 15
Full

Hourly Weather History & Observations

Time (PDT) Temp. Windchill Dew Point Humidity Pressure Visibility Wind Dir Wind Speed Gust Speed Precip Events Conditions
12:54 AM 39.0 °F 34.0 °F 36.0 °F 89% 30.31 in 10.0 mi NW 6.9 mph - N/A   Clear
1:54 AM 36.0 °F 33.3 °F 33.1 °F 89% 30.31 in 10.0 mi NW 3.5 mph - N/A   Clear
2:54 AM 35.1 °F 31.0 °F 33.1 °F 92% 30.32 in 10.0 mi NNE 4.6 mph - N/A   Clear
3:54 AM 35.1 °F 31.0 °F 33.1 °F 92% 30.32 in 10.0 mi NNE 4.6 mph - N/A   Clear
4:54 AM 34.0 °F - 32.0 °F 92% 30.33 in 10.0 mi Calm Calm - N/A   Clear
5:54 AM 32.0 °F - 28.9 °F 88% 30.35 in 10.0 mi Calm Calm - N/A Fog Patches of Fog
6:46 AM 32.0 °F - 30.9 °F 96% 30.34 in 2.5 mi Calm Calm - N/A Fog Scattered Clouds
6:52 AM 32.0 °F - 30.2 °F 93% 30.34 in 1.5 mi Calm Calm - N/A Fog Scattered Clouds
6:54 AM 30.9 °F 27.5 °F 30.0 °F 96% 30.35 in 1.5 mi West 3.5 mph - N/A Fog Scattered Clouds
6:59 AM 30.2 °F 26.7 °F 30.2 °F 100% 30.34 in 0.5 mi West 3.5 mph - N/A Fog Light Freezing Fog
7:05 AM 30.9 °F - 28.9 °F 92% 30.34 in 0.1 mi Calm Calm - N/A Fog Light Freezing Fog
7:40 AM 32.0 °F - 30.9 °F 96% 30.35 in 0.2 mi Calm Calm - N/A Fog Fog
7:54 AM 32.0 °F - 30.9 °F 96% 30.36 in 0.1 mi Calm Calm - N/A Fog Fog
8:54 AM 35.1 °F - 34.0 °F 96% 30.38 in 0.1 mi Calm Calm - N/A Fog Fog
9:20 AM 37.0 °F - 36.0 °F 96% 30.38 in 0.2 mi Calm Calm - N/A Fog Fog
9:30 AM 37.0 °F - 36.0 °F 96% 30.38 in 0.5 mi Calm Calm - N/A Fog Fog
9:36 AM 37.4 °F - 35.6 °F 93% 30.38 in 2.0 mi Calm Calm - N/A Fog Mostly Cloudy
9:46 AM 39.0 °F - 37.0 °F 93% 30.38 in 7.0 mi Calm Calm - N/A   Scattered Clouds
9:54 AM 39.0 °F - 37.0 °F 93% 30.39 in 9.0 mi Calm Calm - N/A   Mostly Cloudy
10:54 AM 42.8 °F 41.1 °F 37.4 °F 81% 30.38 in 10.0 mi NW 3.5 mph - N/A   Scattered Clouds
11:54 AM 48.9 °F - 35.1 °F 59% 30.38 in 10.0 mi North 8.1 mph - N/A   Scattered Clouds
12:54 PM 50.0 °F - 32.0 °F 50% 30.37 in 10.0 mi North 12.7 mph - N/A   Scattered Clouds
1:54 PM 52.0 °F - 32.0 °F 47% 30.36 in 10.0 mi North 11.5 mph 19.6 mph N/A   Scattered Clouds
2:54 PM 53.1 °F - 30.0 °F 41% 30.34 in 10.0 mi NNE 13.8 mph 19.6 mph N/A   Scattered Clouds
3:54 PM 53.1 °F - 30.0 °F 41% 30.33 in 10.0 mi North 11.5 mph - N/A   Scattered Clouds
4:54 PM 53.1 °F - 30.0 °F 41% 30.32 in 10.0 mi NNE 11.5 mph - N/A   Scattered Clouds
5:54 PM 52.0 °F - 30.9 °F 45% 30.30 in 10.0 mi North 12.7 mph - N/A   Partly Cloudy
6:54 PM 48.0 °F - 34.0 °F 58% 30.29 in 10.0 mi North 8.1 mph - N/A   Partly Cloudy
7:54 PM 43.0 °F 38.8 °F 36.0 °F 76% 30.29 in 10.0 mi North 6.9 mph - N/A   Partly Cloudy
8:54 PM 39.9 °F 34.5 °F 35.1 °F 83% 30.31 in 10.0 mi North 8.1 mph - N/A   Clear
9:54 PM 41.0 °F 35.2 °F 35.1 °F 79% 30.32 in 10.0 mi North 9.2 mph - N/A   Clear
10:54 PM 39.9 °F 33.4 °F 35.1 °F 83% 30.32 in 10.0 mi North 10.4 mph - N/A   Clear
11:54 PM 37.9 °F 30.0 °F 35.1 °F 89% 30.31 in 10.0 mi North 12.7 mph - N/A   Clear